Regional Weather Roundup
Issued by NWS

Home | Current Version | Previous Version | Graphics & Text | Print | Product List | Glossary On
Versions: 1 2 3 4 5 6 7 8 9 10 11 12 13 14 15 16 17 18 19 20 21 22 23 24 25 26 27 28 29 30 31 32 33 34 35 36 37 38 39 40 41 42 43 44 45 46 47 48 49 50
000
ASUS43 KMPX 181010
RWRMN
WEATHER ROUNDUP FOR MINNESOTA
NATIONAL WEATHER SERVICE TWIN CITIES/CHANHASSEN MN
400 AM CST SAT NOV 18 2017


NOTE: "FAIR" INDICATES FEW OR NO CLOUDS BELOW 12,000 FEET WITH NO
SIGNIFICANT WEATHER AND/OR OBSTRUCTIONS TO VISIBILITY. N/A MEANS
CURRENT SKY AND/OR WEATHER CONDITIONS ARE NOT AVAILABLE.

MNZ060>063-068>070-181100-
   Twin Cities Metro

CITY           SKY/WX    TMP DP  RH WIND       PRES   REMARKS
TWIN CITIES    CLOUDY    35  34  96 NW6       29.72R WCI  30
ST PAUL        CLOUDY    35  34  96 N8        29.73R WCI  29
CRYSTAL        CLOUDY    34  30  85 NW6       29.72R WCI  29
BLAINE         CLOUDY    36  36 100 NW7       29.71S
LAKEVILLE      CLOUDY    34  34 100 N7        29.71R FOG     WCI  28
EDEN PRAIRIE   CLOUDY    35  32  88 N8        29.71R WCI  29
SOUTH ST PAUL  CLOUDY    35  35 100 N7        29.72R FOG     WCI  29
LAKE ELMO      CLOUDY    34  34 100 NW6       29.72R FOG     WCI  29
$$
MNZ001>005-007-008-013>017-022>024-027-028-181100-
   Northwest Minnesota

CITY           SKY/WX    TMP DP  RH WIND       PRES   REMARKS
BEMIDJI        CLOUDY    15  12  90 W5        29.78R WCI   7
HALLOCK        PTCLDY    12   9  85 NW9       29.86R WCI   0
ROSEAU         CLOUDY    14  10  85 W8        29.82R WCI   3
WARROAD        CLOUDY    12   9  85 W7        29.81R WCI   2
THIEF RVR FALL CLOUDY    14  12  92 W9        29.85R WCI   2
CROOKSTON      CLEAR     16  12  86 NW8       29.88R WCI   5
FOSSTON        CLEAR     12  12 100 W3        29.82S
DETROIT LAKES  CLOUDY    19  18  93 NW7       29.82R WCI  10
MOORHEAD       PTCLDY    18  14  86 CALM      29.87R
PARK RAPIDS    MOCLDY    21  16  81 N6        29.78R WCI  13
MAHNOMEN       FAIR      15  13  90 W6        29.83R WCI   7
$$
MNZ006-009>011-018-025>026-181100-
   North Central Minnesota

CITY           SKY/WX    TMP DP  RH WIND       PRES   REMARKS
BAUDETTE       MOCLDY    15  12  88 W6        29.77R WCI   6
FLAG ISLAND    PTCLDY    12   9  85 NW9       29.79R WCI   0
INTL FALLS     PTCLDY    15  12  88 W5        29.76R FOG     WCI   8
WASKISH        PTCLDY    18  14  86 W3        29.78S
BIG FORK       CLOUDY    19  16  86 CALM      29.76S
LONGVILLE      CLOUDY    23  19  86 CALM      29.78R
GRAND RAPIDS   CLOUDY    22  19  89 NW9       29.78R WCI  12
CRANE LAKE     PTCLDY    21  19  93 CALM      29.76S
ORR            PTCLDY    18  16  93 NW5       29.72R WCI  11
COOK           PTCLDY    19  18  93 W3        29.74R
WALKER         FAIR      19  15  84 NW7       29.78R WCI   9
$$
MNZ012-019>021-037-181100-
   Northeast Minnesota

CITY           SKY/WX    TMP DP  RH WIND       PRES   REMARKS
DULUTH         CLOUDY    28  25  88 N8        29.69R WCI  20
ELY            CLOUDY    27  25  93 NW5       29.70S WCI  21
HIBBING        CLOUDY    22  18  85 NW8       29.72S WCI  12
EVELETH        CLOUDY    23  18  80 N3        29.72S
DULUTH HARBOR  CLOUDY    34  30  86 N15       29.73F WCI  24
TWO HARBORS    CLOUDY    34  28  80 N3        29.68S
SILVER BAY     CLOUDY    32  28  86 CALM      29.67S
GRAND MARAIS     N/A     33  31  92 CALM      29.69S
G MARAIS ARPRT CLOUDY    27  23  86 NW5       29.65R WCI  21
$$
MNZ029>031-032-039>041-046>048-054>057-064-181100-
   West Central Minnesota

CITY           SKY/WX    TMP DP  RH WIND       PRES   REMARKS
FERGUS FALLS   PTCLDY    19  16  86 N10       29.85F WCI   8
WHEATON        PTCLDY    21  18  86 NW12      29.87R WCI   9
MORRIS         CLOUDY    23  18  80 NW15      29.81S WCI  10
ALEXANDRIA     CLOUDY    25  20  81 NW10      29.79R WCI  15
ELBOW LAKE     FAIR      21  17  87 NW9       29.82S WCI  10
WADENA         PTCLDY    21  18  86 NW8       29.79R WCI  12
GLENWOOD       CLOUDY    27  23  86 NW13      29.78R WCI  16
APPLETON       CLOUDY    27  18  69 NW13G18   29.82S WCI  16
BENSON         CLOUDY    25  19  80 N14       29.81S WCI  13
ORTONVILLE     PTCLDY    25  18  74 MISG      29.82S
MADISON        CLOUDY    28  23  80 NW10      29.83R WCI  19
WILLMAR        FAIR      28  27  93 NW13      29.79S WCI  18
$$
MNZ033>034-036-042>043-049>051-058-059-181100-
   Central Minnesota

CITY           SKY/WX    TMP DP  RH WIND       PRES   REMARKS
ST CLOUD       CLOUDY    31  29  92 N6        29.74R WCI  25
SAUK CENTRE    FAIR      28  24  86 NW9       29.77R WCI  19
PAYNESVILLE    CLOUDY    31  28  90 NW6       29.77S WCI  25
AITKIN         CLOUDY    25  19  80 NW5       29.75R WCI  19
PINE RIVER     PTCLDY    23  18  80 CALM      29.81R
BRAINERD       CLOUDY    28  21  75 N8        29.76R WCI  20
STAPLES        CLOUDY    25  19  80 NW9       29.78R WCI  15
LONG PRAIRIE   FAIR      27  23  86 W7        29.77R WCI  19
LITTLE FALLS   CLOUDY    30  21  69 CALM      29.75S
LITCHFIELD     CLOUDY    32  30  93 NW8       29.76R WCI  25
BUFFALO        CLOUDY    33  30  90 NW6       29.75R WCI  27
MAPLE LAKE     CLOUDY    34  32  93 NW6       29.75R WCI  28
HUTCHINSON     CLOUDY    33  32  94 W6        29.76R WCI  28
$$
MNZ037-044-045-052-053-181100-
   East Central Minnesota

CITY           SKY/WX    TMP DP  RH WIND       PRES   REMARKS
PRINCETON      CLOUDY    32  30  93 NW5       29.74R WCI  27
MORA           CLOUDY    32  32 100 N3        29.75R
CAMBRIDGE      CLOUDY    34  34 100 NW6       29.74R WCI  29
RUSH CITY      CLOUDY    32  31  95 NW6       29.73R WCI  26
MOOSE LAKE     CLOUDY    30  27  86 N8        29.71R WCI  23
HINCKLEY       PTSUNNY   32  30  93 N6        29.72R WCI  26
CLOQUET        PTCLDY    28  25  86 NW13      29.71S WCI  18
MCGREGOR       CLOUDY    28  23  80 NW8       29.75R WCI  20
$$
MNZ071>073-080-081-089-090-097-098-181100-
   Southwest Minnesota

CITY           SKY/WX    TMP DP  RH WIND       PRES   REMARKS
MONTEVIDEO     CLOUDY    27  21  80 N14       29.80S WCI  15
GRANITE FALLS  CLOUDY    29  24  81 NW8G16    29.81S WCI  22
CANBY          CLOUDY    28  23  81 W10       29.83S WCI  19
MARSHALL       PTCLDY    28  23  81 NW20      29.80R WCI  15
REDWOOD FALLS  CLOUDY    30  22  72 NW9       29.78R WCI  22
OLIVIA         CLOUDY    30  27  86 NW12G18   29.77R WCI  21
PIPESTONE      MOCLDY    30  23  74 N5        29.76R WCI  25
WINDOM           N/A     30  18  59 NW16G22   29.74R WCI  19
WORTHINGTON    CLOUDY    30  24  78 N13       29.75R WCI  20
JACKSON        CLOUDY    32  28  86 NW14G23   29.73S WCI  22
SLAYTON        CLOUDY    28  23  80 N12G21    29.77S WCI  18
$$
MNZ065>067-074>077-082>085-091>093-181100-
   South Central Minnesota

CITY           SKY/WX    TMP DP  RH WIND       PRES   REMARKS
MANKATO        CLOUDY    34  32  92 NW15      29.72R WCI  24
NEW ULM        CLOUDY    32  28  86 NW3       29.75R
ST JAMES       MOCLDY    30  28  93 NW14      29.75R WCI  20
FAIRMONT       CLOUDY    33  30  88 N17       29.72R WCI  22
GLENCOE        CLOUDY    35  35 100 NW9       29.74R WCI  27
FARIBAULT      CLOUDY    36  34  93 N6        29.69F FOG
OWATONNA       MOCLDY    36  34  93 N9        29.68F FOG
WASECA         CLOUDY    34  32  93 N9        29.71S FOG     WCI  26
ALBERT LEA     CLOUDY    36  34  93 N12       29.66S FOG
$$
MNZ078>079-086>088-094>096-181100-
   Southeast Minnesota

CITY           SKY/WX    TMP DP  RH WIND       PRES   REMARKS
ROCHESTER      CLOUDY    35  34  96 N15       29.65S FOG     WCI  25
RED WING       CLOUDY    36  32  87 N3        29.68S
DODGE CENTER   CLOUDY    34  34 100 N15       29.66R FOG     WCI  24
WINONA         CLOUDY    36  34  93 NW6       29.65S
AUSTIN         CLOUDY    36  34  93 N10G16    29.65R FOG
PRESTON        CLOUDY    34  33  97 N12       29.62F FOG     WCI  25
$$
ABBREVIATIONS USED IN REMARKS
   TC - TEMPERATURES IN CELSIUS
  WCI - WIND CHILL INDEX
   HX - HEAT INDEX
  VSB - VISIBILITY
$$



USA.gov is the U.S. government's official web portal to all federal, state and local government web resources and services.